User: anonymous   Login
Location: Unspecified
(0.0000°N, 0.0000°E)
Time: 11:15:04
(UTC+00:00)
Language:

USA 247 - Orbit

View from above orbital plane
View from above orbital plane
View from above satellite
View from above satellite

Ground track
Ground track

The orbit data is extracted from the following two-line orbital elements,

1 39462U 13072A   16112.07520807 0.00000000  00000-0  00000-0 0    00
2 39462 122.9997  35.4179 0005250 183.0098 176.9902 13.41452608    03
Epoch (UTC): 21 April 2016 01:48:17
Eccentricity: 0.0005250
inclination: 122.9997°
perigee height: 1100 km
apogee height: 1108 km
right ascension of ascending node: 35.4179°
argument of perigee: 183.0098°
revolutions per day: 13.41452608
mean anomaly at epoch: 176.9902°
orbit number at epoch: 0

The dashed part of the orbit path shows where the satellite is in the earth's shadow,  

DLR